Location: DaVinci Observatory
(43.1080°N, 78.6453°W)
Time: 14:56:37
(UTC-05:00)

N. Korean satellite - Pass Details

Date: 10 October 2017
Orbit: 461 x 513 km, 97.2° (Epoch: 14 December)

Event Time Altitude Azimuth Distance (km) Brightness Sun altitude
Rises 19:25:21 0° 173° (S) 2,563 10.2 -9.1°
Reaches altitude 10° 19:27:27 10° 177° (S) 1,677 9.3 -9.5°
Maximum altitude 19:31:01 64° 259° (W) 542 7.1 -10.2°
Drops below altitude 10° 19:34:34 10° 342° (NNW) 1,661 9.5 -10.8°
Sets 19:36:38 0° 345° (NNW) 2,536 10.4 -11.2°
